DTH040 DTTA-DAAG

Flight info

Callsign DTH040
Flight time N/A
Altitude 28000
Route KEMIR UM978 MORJA UA411 BJA J7 LIMON G26 ZEM
Aircraft A320/M-SDE3FGHIRWY/LB1

Departure

Time 2026-05-08 18:35
Airport Tunis Carthage International Airport (DTTA)

Arrival

Time N/A
Airport Houari Boumediene Airport (DAAG)
Time Latitude Longitude Altitude Speed Heading
2026-05-08 18:09 36.84535 10.21952 30 ft 0 kts 356°
2026-05-08 18:24 36.84527 10.21952 30 ft 2 kts 356°
2026-05-08 18:24 36.84510 10.21954 30 ft 2 kts 356°
2026-05-08 18:24 36.84493 10.21955 30 ft 2 kts 356°
2026-05-08 18:24 36.84476 10.21957 30 ft 2 kts 356°
2026-05-08 18:25 36.84458 10.21955 30 ft 3 kts 27°
2026-05-08 18:25 36.84448 10.21948 30 ft 2 kts 38°
2026-05-08 18:25 36.84436 10.21931 30 ft 3 kts 73°
2026-05-08 18:25 36.84435 10.21928 30 ft 0 kts 78°
2026-05-08 18:29 36.84436 10.21931 30 ft 0 kts 73°
2026-05-08 18:29 36.84437 10.21933 30 ft 0 kts 69°
2026-05-08 18:30 36.84436 10.21951 30 ft 3 kts 100°
2026-05-08 18:30 36.84463 10.22031 30 ft 16 kts 56°
2026-05-08 18:30 36.84502 10.22141 30 ft 11 kts 89°
2026-05-08 18:31 36.84466 10.22237 30 ft 16 kts 151°
2026-05-08 18:31 36.84341 10.22222 31 ft 22 kts 193°
2026-05-08 18:31 36.84176 10.22168 31 ft 27 kts 194°
2026-05-08 18:31 36.84013 10.22125 31 ft 15 kts 188°
2026-05-08 18:32 36.83914 10.22108 30 ft 14 kts 167°
2026-05-08 18:32 36.83879 10.22134 30 ft 0 kts 133°
2026-05-08 18:32 36.83878 10.22135 30 ft 1 kts 131°
2026-05-08 18:32 36.83875 10.22140 30 ft 1 kts 128°
2026-05-08 18:33 36.83869 10.22165 30 ft 4 kts 98°
2026-05-08 18:33 36.83871 10.22204 31 ft 6 kts 84°
2026-05-08 18:33 36.83894 10.22260 31 ft 10 kts 41°
2026-05-08 18:33 36.83936 10.22273 31 ft 0 kts
2026-05-08 18:34 36.83932 10.22291 29 ft 6 kts 117°
2026-05-08 18:34 36.83941 10.22374 30 ft 14 kts 45°
2026-05-08 18:34 36.84069 10.22412 32 ft 35 kts 12°
2026-05-08 18:34 36.84559 10.22555 28 ft 108 kts 13°
2026-05-08 18:35 36.85485 10.22801 136 ft 152 kts 13°
2026-05-08 18:35 36.86501 10.23101 886 ft 150 kts 14°
2026-05-08 18:35 36.87522 10.23384 1662 ft 150 kts 12°
2026-05-08 18:35 36.88597 10.23674 2211 ft 169 kts 12°
2026-05-08 18:36 36.89825 10.24003 2668 ft 192 kts 11°
2026-05-08 18:36 36.91218 10.24373 3103 ft 217 kts 10°
2026-05-08 18:36 36.92785 10.24789 3634 ft 242 kts
2026-05-08 18:36 36.94485 10.25208 4280 ft 259 kts
2026-05-08 18:37 36.96304 10.25000 5187 ft 260 kts 338°
2026-05-08 18:37 36.97829 10.23914 6150 ft 255 kts 312°
2026-05-08 18:37 36.98833 10.22129 7144 ft 250 kts 289°
2026-05-08 18:37 36.99140 10.20004 8113 ft 251 kts 268°
2026-05-08 18:38 36.98716 10.17877 9092 ft 257 kts 250°
2026-05-08 18:38 36.98094 10.15783 10107 ft 257 kts 256°
2026-05-08 18:38 36.97655 10.13537 10650 ft 277 kts 259°
2026-05-08 18:38 36.97250 10.11036 11009 ft 302 kts 260°
2026-05-08 18:39 36.96831 10.08424 11580 ft 315 kts 259°
2026-05-08 18:39 36.96372 10.05722 12405 ft 321 kts 258°
2026-05-08 18:39 36.95874 10.02978 13256 ft 325 kts 257°
2026-05-08 18:39 36.95350 10.00205 14057 ft 330 kts 257°
2026-05-08 18:40 36.94805 9.97402 14792 ft 332 kts 256°
2026-05-08 18:40 36.94248 9.94591 15544 ft 334 kts 256°
2026-05-08 18:40 36.93684 9.91760 16294 ft 336 kts 256°
2026-05-08 18:40 36.93117 9.88920 17038 ft 338 kts 256°
2026-05-08 18:41 36.92546 9.86061 17782 ft 340 kts 256°
2026-05-08 18:41 36.91972 9.83186 18487 ft 342 kts 256°
2026-05-08 18:41 36.91398 9.80300 18894 ft 344 kts 256°
2026-05-08 18:41 36.90822 9.77394 19050 ft 343 kts 256°
2026-05-08 18:42 36.90244 9.74475 19567 ft 347 kts 256°
2026-05-08 18:42 36.89662 9.71540 20236 ft 349 kts 256°
2026-05-08 18:42 36.89074 9.68590 20874 ft 352 kts 256°
2026-05-08 18:42 36.88479 9.65613 21489 ft 354 kts 256°
2026-05-08 18:43 36.87879 9.62612 22073 ft 357 kts 256°
2026-05-08 18:43 36.87272 9.59592 22665 ft 360 kts 256°
2026-05-08 18:43 36.86662 9.56554 23218 ft 362 kts 256°
2026-05-08 18:43 36.86047 9.53495 23746 ft 365 kts 256°
2026-05-08 18:44 36.85426 9.50405 24183 ft 367 kts 256°
2026-05-08 18:44 36.84801 9.47303 24633 ft 369 kts 256°
2026-05-08 18:44 36.84172 9.44183 25060 ft 371 kts 257°
2026-05-08 18:44 36.83767 9.40987 25488 ft 374 kts 266°
2026-05-08 18:45 36.83742 9.37731 25908 ft 376 kts 269°